Livermore, CA

8:42 PM PDT on August 23, 2017 (GMT -0700)
Livermore Municipal

Weather History for KLVK - April, 2012

Change the Weather History Date:

Tuesday, April 24, 2012

  Actual Average Record
Temperature  
Mean Temperature 64 °F 58 °F  
Max Temperature 73 °F 71 °F 93 °F (1946)
Min Temperature 54 °F 46 °F 29 °F (1964)
Degree Days  
Heating Degree Days 1 7  
Month to date heating degree days 196 221  
Since 1 July heating degree days 2461 2585  
Cooling Degree Days 0 0  
Month to date cooling degree days 22 0  
Year to date cooling degree days 22 1  
Growing Degree Days 14 (Base 50)    
Moisture  
Dew Point 51 °F    
Average Humidity 66    
Maximum Humidity 83    
Minimum Humidity 49    
Precipitation  
Precipitation 0.00 in 0.03 in 0.29 in (1983)
Month to date precipitation 1.63 0.87  
Year to date precipitation 6.74 9.11  
Since 1 July precipitation 8.65  
Sea Level Pressure  
Sea Level Pressure 30.00 in    
Wind  
Wind Speed 6 mph (West)    
Max Wind Speed 18 mph    
Max Gust Speed 21 mph    
Visibility 10 miles    
Events      
T = Trace of Precipitation, MM = Missing Value Source: NWS Daily Summary

Daily Weather History Graph

Daily Weather History Graph

Search for Another Location

Airport or City:

Trip Planner

Search our weather history database for the weather conditions in past years. The results will help you decide how hot, cold, wet, or windy it might be!

Date:

Astronomy

Apr. 24, 2012 Rise Set
Actual Time 6:19 AM PDT 7:51 PM PDT
Civil Twilight 5:51 AM PDT 8:19 PM PDT
Nautical Twilight 5:18 AM PDT 8:52 PM PDT
Astronomical Twilight 4:43 AM PDT 9:28 PM PDT
Moon 8:22 AM PDT 11:13 PM PDT
Length of Visible Light 14h 27m
Length of Day
13h 32m
Waxing Crescent, 11% of the Moon is Illuminated
Apr 24
Waxing Crescent
Apr 29
First Quarter
May 5
Full
May 12
Last Quarter
May 20
New

Hourly Weather History & Observations

Time (PDT) Temp. Dew Point Humidity Pressure Visibility Wind Dir Wind Speed Gust Speed Precip Events Conditions
12:09 AM 60.8 °F 50.0 °F 68% 30.01 in 10.0 mi SW 8.1 mph - N/A   Overcast
12:46 AM 59.0 °F 51.8 °F 77% 30.01 in 10.0 mi SW 8.1 mph - N/A   Overcast
12:53 AM 59.0 °F 51.1 °F 75% 30.00 in 10.0 mi SSW 5.8 mph - N/A   Overcast
1:53 AM 59.0 °F 51.1 °F 75% 30.01 in 10.0 mi SW 8.1 mph - N/A   Overcast
2:15 AM 59.0 °F 51.8 °F 77% 30.01 in 10.0 mi SW 6.9 mph - N/A   Overcast
2:53 AM 59.0 °F 50.0 °F 72% 29.99 in 10.0 mi SW 6.9 mph - N/A   Overcast
3:53 AM 59.0 °F 50.0 °F 72% 30.00 in 10.0 mi South 5.8 mph - N/A   Overcast
4:53 AM 59.0 °F 50.0 °F 72% 30.00 in 10.0 mi Calm Calm - N/A   Clear
5:53 AM 57.9 °F 50.0 °F 75% 30.00 in 10.0 mi NE 4.6 mph - N/A   Clear
6:53 AM 55.0 °F 50.0 °F 83% 30.03 in 10.0 mi ENE 3.5 mph - N/A   Clear
7:53 AM 57.9 °F 51.1 °F 78% 30.04 in 10.0 mi NE 6.9 mph - N/A   Partly Cloudy
8:53 AM 61.0 °F 51.1 °F 70% 30.04 in 10.0 mi NE 6.9 mph - N/A   Overcast
9:32 AM 62.6 °F 51.8 °F 68% 30.04 in 10.0 mi Calm Calm - N/A   Mostly Cloudy
9:53 AM 63.0 °F 51.1 °F 65% 30.04 in 10.0 mi Variable 4.6 mph - N/A   Mostly Cloudy
10:53 AM 66.0 °F 51.1 °F 59% 30.04 in 8.0 mi Variable 3.5 mph - N/A   Mostly Cloudy
11:53 AM 66.9 °F 51.1 °F 57% 30.02 in 10.0 mi NNW 5.8 mph - N/A   Mostly Cloudy
12:53 PM 68.0 °F 51.1 °F 55% 30.00 in 10.0 mi Calm Calm - N/A   Mostly Cloudy
12:58 PM 68.0 °F 51.8 °F 56% 30.00 in 10.0 mi Calm Calm - N/A   Mostly Cloudy
1:53 PM 70.0 °F 52.0 °F 53% 29.99 in 10.0 mi ENE 6.9 mph - N/A   Mostly Cloudy
2:12 PM 69.8 °F 51.8 °F 53% 29.99 in 10.0 mi Calm Calm - N/A   Overcast
2:42 PM 71.6 °F 51.8 °F 50% 29.99 in 10.0 mi Variable 4.6 mph - N/A   Mostly Cloudy
2:53 PM 71.1 °F 52.0 °F 51% 29.98 in 10.0 mi SE 4.6 mph - N/A   Mostly Cloudy
3:53 PM 73.0 °F 53.1 °F 49% 29.95 in 10.0 mi Variable 3.5 mph - N/A   Mostly Cloudy
4:53 PM 71.1 °F 52.0 °F 51% 29.93 in 10.0 mi Calm Calm - N/A   Overcast
5:53 PM 70.0 °F 53.1 °F 55% 29.93 in 10.0 mi West 12.7 mph - N/A   Mostly Cloudy
6:53 PM 64.9 °F 52.0 °F 63% 29.94 in 10.0 mi West 13.8 mph - N/A   Overcast
7:53 PM 62.1 °F 51.1 °F 67% 29.96 in 10.0 mi West 11.5 mph - N/A   Mostly Cloudy
8:53 PM 59.0 °F 51.1 °F 75% 29.98 in 10.0 mi West 8.1 mph - N/A   Scattered Clouds
9:53 PM 59.0 °F 51.1 °F 75% 30.01 in 10.0 mi WNW 4.6 mph - N/A   Overcast
10:53 PM 59.0 °F 51.1 °F 75% 30.02 in 10.0 mi WNW 5.8 mph - N/A   Overcast
11:53 PM 59.0 °F 51.1 °F 75% 30.02 in 10.0 mi WNW 4.6 mph - N/A   Overcast